Flag for Canada Weather past 2 weeks in Fort Smith, Northwest Territories, Canada

Now
32 °F

Ice fog.


Feels Like: 27 °F
Forecast: 32 / 46 °F
Wind: 5 mph from Northeast

Location: Fort Smith

Current Time: Oct 22, 2014 at 8:59:10 AM

Latest Report: Oct 22, 2014 at 8:00 AM


Visibility: 0 mi

Pressure: 29.72 "Hg

Humidity: 100%

Dew point: 32 °F

Location of Fort SmithLocation

Historic Weather in Fort Smith — Graph

°F

Fort Smith temperature yesterday

Maximum temperature yesterday: 54 °F (at 3:00 PM)
Minimum temperature yesterday: 32 °F (at 11:00 PM)
Average temperature yesterday: 44 °F

Past Weeks' High & Low Weather Summary

 TemperatureHumidityPressure
High59 °F (Oct 10, 4:00 PM)100% (Oct 7, 1:00 PM)30.31 "Hg (Oct 7, 1:00 PM)
Low21 °F (Oct 16, 5:00 AM)48% (Oct 10, 4:00 PM)29.22 "Hg (Oct 11, 6:00 AM)
Average39 °F85%29.76 "Hg
* Reported Oct 7 7:00 AM — Oct 22 7:00 AM, Fort Smith, Weather by CustomWeather, © 2014

Note: Actual official high and low records may vary slightly from our data, if they occured in-between our weather recording intervals... More about our weather records

Advertising

Fort Smith weather history for previous 24 hours

 ConditionsComfort  
Time TempWeatherWind HumidityBarometerVisibility
7:00 AM
Oct 22
30 °FIce fog.6 mph100%29.71 "Hg1 mi
6:00 AM30 °FIce fog.No wind100%29.70 "Hg1 mi
5:00 AM32 °FIce fog.5 mph100%29.68 "Hg1 mi
4:00 AM32 °FIce fog.5 mph100%29.68 "Hg1 mi
3:00 AM32 °FIce fog.2 mph93%29.67 "Hg1 mi
2:00 AM32 °FIce fog.2 mph100%29.66 "Hg1 mi
1:00 AM32 °FIce fog.2 mph100%29.63 "Hg0 mi
12:00 AM30 °FIce fog.5 mph100%29.61 "Hg2 mi
11:00 PM
Oct 21
32 °FIce fog.2 mph100%29.60 "Hg3 mi
10:00 PM34 °FClear.3 mph100%29.59 "Hg15 mi
9:00 PM37 °FPassing clouds.3 mph93%29.58 "Hg15 mi
8:00 PM37 °FPassing clouds.2 mph100%29.55 "Hg15 mi
7:00 PM41 °FPassing clouds.No wind93%29.53 "Hg15 mi
6:00 PM45 °FScattered clouds.3 mph87%29.52 "Hg15 mi
5:00 PM54 °FPartly sunny.3 mph67%29.50 "Hg15 mi
4:00 PM54 °FPassing clouds.7 mph67%29.49 "Hg15 mi
3:00 PM54 °FPassing clouds.7 mph67%29.49 "Hg15 mi
2:00 PM52 °FScattered clouds.6 mph72%29.49 "Hg15 mi
1:00 PM50 °FScattered clouds.3 mph71%29.48 "Hg15 mi
12:00 PM46 °FScattered clouds.5 mph87%29.47 "Hg15 mi
11:00 AM45 °FScattered clouds.5 mph93%29.46 "Hg15 mi
10:00 AM43 °FPartly sunny.3 mph100%29.45 "Hg15 mi
9:00 AM39 °FFog.5 mph100%29.44 "Hg8 mi
8:00 AM39 °FFog.2 mph93%29.43 "Hg1 mi
Weather by CustomWeather, © 2014

See weather overviewHow to use our weather pages